DW7013 Weather Reports


time (UTC)temp
C
wind
direction
speed
KPH
gust
KPH
rain 1hr
cm
rain 24hr
cm
rain mn
cm
humidity
%
barometer
mb
20260905023227 17 0 0.0 0.0 0.00 0.00 0.00 76 1021.8
20260905022720 17 351 0.0 0.0 0.00 0.00 0.00 76 1021.7
20260905022220 17 351 0.0 0.0 0.00 0.00 0.00 76 1021.7
20260905021250 17 351 0.0 0.0 0.00 0.00 0.00 76 1021.8
20260905020719 17 5 0.0 0.0 0.00 0.00 0.00 76 1021.7
20260905020213 18 5 0.0 0.0 0.00 0.00 0.00 75 1021.7
20260905015721 18 5 0.0 0.0 0.00 0.00 0.00 75 1021.8
20260905014721 18 24 0.0 9.7 0.00 0.00 0.00 74 1021.7
20260905014229 18 355 1.6 9.7 0.00 0.00 0.00 74 1021.7
20260905013715 18 302 1.6 11.3 0.00 0.00 0.00 74 1021.7
20260905013211 18 0 1.6 11.3 0.00 0.00 0.00 73 1021.7
20260905012232 18 322 0.0 4.8 0.00 0.00 0.00 71 1021.7
20260905011726 18 336 0.0 3.2 0.00 0.00 0.00 70 1021.5
20260905011215 18 336 0.0 0.0 0.00 0.00 0.00 70 1021.4
20260905010731 18 5 0.0 4.8 0.00 0.00 0.00 69 1021.3
20260905010217 18 17 0.0 4.8 0.00 0.00 0.00 68 1021.3
20260905005707 18 355 0.0 8.0 0.00 0.00 0.00 68 1021.4
20260905004711 18 355 1.6 12.9 0.00 0.00 0.00 67 1021.3
20260905003729 19 5 8.0 16.1 0.00 0.00 0.00 66 1021.4
20260905003216 19 323 6.4 16.1 0.00 0.00 0.00 66 1021.3
20260905002709 19 336 1.6 12.9 0.00 0.00 0.00 66 1021.2
20260905002220 19 337 0.0 17.7 0.00 0.00 0.00 65 1021.1
20260905001718 20 324 1.6 19.3 0.00 0.00 0.00 65 1021.1
20260905001231 20 324 6.4 19.3 0.00 0.00 0.00 65 1021.1
20260904235721 20 350 6.4 17.7 0.00 0.00 0.00 64 1021.1
20260904235227 20 333 3.2 12.9 0.00 0.00 0.00 64 1021.1
20260904234714 20 322 3.2 12.9 0.00 0.00 0.00 63 1021.0
20260904234232 20 333 1.6 8.0 0.00 0.00 0.00 62 1021.0
20260904233728 20 5 1.6 8.0 0.00 0.00 0.00 62 1021.0
20260904233225 20 324 0.0 8.0 0.00 0.00 0.00 61 1021.0
20260904232217 21 348 1.6 9.7 0.00 0.00 0.00 59 1020.9
20260904231721 21 336 1.6 14.5 0.00 0.00 0.00 58 1021.0
20260904231228 21 349 3.2 14.5 0.00 0.00 0.00 57 1021.0
20260904230722 22 351 4.8 14.5 0.00 0.00 0.00 56 1020.9
20260904230246 22 5 4.8 17.7 0.00 0.00 0.00 55 1020.9
20260904225727 22 347 6.4 17.7 0.00 0.00 0.00 56 1020.9
20260904225222 22 340 6.4 11.3 0.00 0.00 0.00 55 1020.8
20260904224717 22 13 4.8 14.5 0.00 0.00 0.00 56 1020.8
20260904224215 21 335 6.4 14.5 0.00 0.00 0.00 56 1020.7
20260904223712 21 324 4.8 12.9 0.00 0.00 0.00 57 1020.6
20260904222725 21 9 3.2 12.9 0.00 0.00 0.00 59 1020.6
20260904221724 20 342 0.0 6.4 0.00 0.00 0.00 62 1020.5
20260904220713 20 31 0.0 0.0 0.00 0.00 0.00 63 1020.5
20260904220225 20 87 0.0 0.0 0.00 0.00 0.00 63 1020.5
20260904215713 20 307 0.0 0.0 0.00 0.00 0.00 63 1020.5
20260904215227 20 344 0.0 0.0 0.00 0.00 0.00 63 1020.5
20260904213718 20 325 0.0 6.4 0.00 0.00 0.00 63 1020.4
20260904213217 20 311 0.0 6.4 0.00 0.00 0.00 63 1020.4
20260904212712 20 84 0.0 0.0 0.00 0.00 0.00 63 1020.4
20260904212255 20 355 0.0 0.0 0.00 0.00 0.00 64 1020.4
20260904211220 20 13 0.0 0.0 0.00 0.00 0.00 63 1020.4
20260904210726 20 355 0.0 0.0 0.00 0.00 0.00 63 1020.4
20260904210216 20 344 0.0 0.0 0.00 0.00 0.00 63 1020.4
20260904205718 21 19 0.0 0.0 0.00 0.00 0.00 63 1020.4
20260904204218 21 38 0.0 0.0 0.00 0.00 0.00 61 1020.4
20260904203721 21 44 0.0 0.0 0.00 0.00 0.00 61 1020.4
20260904203220 21 355 0.0 0.0 0.00 0.00 0.00 61 1020.4
20260904202728 21 351 0.0 0.0 0.00 0.00 0.00 61 1020.5
20260904202230 22 38 0.0 0.0 0.00 0.00 0.00 60 1020.5
20260904201725 22 63 0.0 0.0 0.00 0.00 0.00 59 1020.6
20260904200730 22 313 0.0 0.0 0.00 0.00 0.00 58 1020.4
20260904200210 22 313 0.0 3.2 0.00 0.00 0.00 57 1020.4
20260904195720 22 9 0.0 8.0 0.00 0.00 0.00 57 1020.4
20260904195231 23 150 0.0 17.7 0.00 0.00 0.00 57 1020.3
20260904194711 23 196 1.6 17.7 0.00 0.00 0.00 54 1020.3
20260904194216 23 309 1.6 17.7 0.00 0.00 0.00 55 1020.3
20260904193726 23 344 3.2 12.9 0.00 0.00 0.00 55 1020.3
20260904193212 23 13 4.8 20.9 0.00 0.00 0.00 56 1020.3
20260904191713 22 5 1.6 9.7 0.00 0.00 0.00 57 1020.3
20260904191219 22 71 0.0 9.7 0.00 0.00 0.00 58 1020.3
20260904190716 22 37 0.0 9.7 0.00 0.00 0.00 59 1020.1
20260904190215 22 328 0.0 0.0 0.00 0.00 0.00 58 1020.0
20260904185720 23 0 0.0 0.0 0.00 0.00 0.00 58 1020.0
20260904185224 23 103 0.0 0.0 0.00 0.00 0.00 58 1020.0
20260904184717 23 343 0.0 3.2 0.00 0.00 0.00 58 1019.9
20260904184218 23 80 0.0 3.2 0.00 0.00 0.00 57 1019.8
20260904183722 23 325 0.0 3.2 0.00 0.00 0.00 57 1019.9
20260904183219 23 53 0.0 0.0 0.00 0.00 0.00 56 1019.8
20260904182733 23 5 0.0 0.0 0.00 0.00 0.00 56 1019.7
20260904182220 23 182 0.0 0.0 0.00 0.00 0.00 56 1019.7
20260904181728 23 355 0.0 0.0 0.00 0.00 0.00 55 1019.7
20260904181223 24 276 0.0 0.0 0.00 0.00 0.00 55 1019.5
20260904180708 24 276 0.0 0.0 0.00 0.00 0.00 54 1019.5
20260904180210 24 12 0.0 0.0 0.00 0.00 0.00 53 1019.5
20260904175726 24 302 0.0 9.7 0.00 0.00 0.00 53 1019.4
20260904175213 25 5 0.0 11.3 0.00 0.00 0.00 52 1019.4
20260904173724 25 355 4.8 24.1 0.00 0.00 0.00 51 1019.3
20260904173225 25 355 4.8 24.1 0.00 0.00 0.00 50 1019.4
20260904172210 25 355 1.6 14.5 0.00 0.00 0.00 49 1019.3
20260904171721 25 329 3.2 20.9 0.00 0.00 0.00 48 1019.4
20260904171224 25 5 3.2 22.5 0.00 0.00 0.00 48 1019.4
20260904170712 25 41 6.4 22.5 0.00 0.00 0.00 48 1019.4
20260904170220 26 347 4.8 22.5 0.00 0.00 0.00 47 1019.4
20260904165723 26 355 3.2 29.0 0.00 0.00 0.00 47 1019.3
20260904165210 26 0 6.4 29.0 0.00 0.00 0.00 46 1019.3
20260904164710 26 293 11.3 29.0 0.00 0.00 0.00 46 1019.4
20260904164209 27 336 9.7 24.1 0.00 0.00 0.00 44 1019.4
20260904163721 27 51 4.8 20.9 0.00 0.00 0.00 43 1019.3
20260904163219 28 123 4.8 22.5 0.00 0.00 0.00 42 1019.3
20260904162719 28 355 4.8 29.0 0.00 0.00 0.00 43 1019.3
20260904162212 28 37 8.0 29.0 0.00 0.00 0.00 42 1019.3
20260904161726 28 80 8.0 29.0 0.00 0.00 0.00 41 1019.3
20260904161223 28 78 6.4 22.5 0.00 0.00 0.00 40 1019.2
20260904160717 28 344 4.8 24.1 0.00 0.00 0.00 40 1019.2
20260904155721 28 14 3.2 24.1 0.00 0.00 0.00 41 1019.1
20260904155226 28 5 3.2 14.5 0.00 0.00 0.00 40 1019.3
20260904154715 28 198 4.8 14.5 0.00 0.00 0.00 41 1019.2
20260904154220 28 150 3.2 12.9 0.00 0.00 0.00 41 1019.2
20260904153720 28 117 1.6 12.9 0.00 0.00 0.00 41 1019.2
20260904153229 28 136 1.6 12.9 0.00 0.00 0.00 40 1019.2
20260904152224 28 171 3.2 17.7 0.00 0.00 0.00 40 1019.2
20260904151713 29 150 4.8 17.7 0.00 0.00 0.00 39 1019.2
20260904151224 29 5 3.2 19.3 0.00 0.00 0.00 39 1019.3
20260904150730 29 107 4.8 19.3 0.00 0.00 0.00 38 1019.3
20260904150219 29 317 3.2 19.3 0.00 0.00 0.00 39 1019.3
20260904145229 28 153 3.2 16.1 0.00 0.00 0.00 40 1019.4
20260904144714 28 175 4.8 19.3 0.00 0.00 0.00 41 1019.3
20260904143718 28 117 6.4 19.3 0.00 0.00 0.00 42 1019.4
20260904143215 28 163 8.0 19.3 0.00 0.00 0.00 40 1019.4
20260904141218 28 183 6.4 17.7 0.00 0.00 0.00 41 1019.4
20260904140729 28 163 6.4 24.1 0.00 0.00 0.00 41 1019.5
20260904140215 28 135 9.7 24.1 0.00 0.00 0.00 42 1019.6
20260904135232 28 161 9.7 20.9 0.00 0.00 0.00 40 1019.6
20260904134726 28 161 8.0 20.9 0.00 0.00 0.00 40 1019.6
20260904134221 28 159 4.8 20.9 0.00 0.00 0.00 40 1019.7
20260904133724 30 192 3.2 20.9 0.00 0.00 0.00 39 1019.8
20260904133224 29 283 6.4 20.9 0.00 0.00 0.00 40 1019.9
20260904132208 29 355 1.6 17.7 0.00 0.00 0.00 39 1020.0
20260904130210 28 123 1.6 14.5 0.00 0.00 0.00 40 1020.1
20260904125726 28 73 3.2 17.7 0.00 0.00 0.00 40 1020.3
20260904125218 28 320 4.8 17.7 0.00 0.00 0.00 42 1020.4
20260904124223 28 350 4.8 20.9 0.00 0.00 0.00 41 1020.5
20260904123720 27 301 6.4 20.9 0.00 0.00 0.00 42 1020.6
20260904123220 27 165 8.0 20.9 0.00 0.00 0.00 41 1020.6
20260904122716 28 171 6.4 20.9 0.00 0.00 0.00 41 1020.5
20260904122230 27 113 6.4 24.1 0.00 0.00 0.00 43 1020.6
20260904121720 27 86 11.3 24.1 0.00 0.00 0.00 42 1020.6
20260904121224 27 167 12.9 29.0 0.00 0.00 0.00 43 1020.6
20260904120720 27 151 9.7 29.0 0.00 0.00 0.00 43 1020.6
20260904120220 27 163 8.0 29.0 0.00 0.00 0.00 43 1020.6
20260904115726 27 180 8.0 22.5 0.00 0.00 0.00 42 1020.6
20260904114723 27 142 9.7 22.5 0.00 0.00 0.00 43 1020.7
20260904114221 27 94 9.7 20.9 0.00 0.00 0.00 44 1020.8
20260904113723 27 175 9.7 20.9 0.00 0.00 0.00 43 1020.8
20260904113210 26 134 9.7 20.9 0.00 0.00 0.00 44 1020.8
20260904112718 26 159 8.0 20.9 0.00 0.00 0.00 43 1020.9
20260904112217 26 166 8.0 20.9 0.00 0.00 0.00 45 1020.9
20260904111726 26 130 8.0 20.9 0.00 0.00 0.00 44 1021.0
20260904111219 26 167 11.3 19.3 0.00 0.00 0.00 45 1021.1
20260904110729 26 178 11.3 19.3 0.00 0.00 0.00 45 1021.1
20260904110224 26 157 9.7 20.9 0.00 0.00 0.00 45 1021.0
20260904105728 26 162 9.7 22.5 0.00 0.00 0.00 45 1021.2
20260904105212 26 166 11.3 22.5 0.00 0.00 0.00 45 1021.3
20260904104728 25 170 11.3 22.5 0.00 0.00 0.00 46 1021.3
20260904104210 25 130 11.3 22.5 0.00 0.00 0.00 46 1021.4
20260904103720 25 142 11.3 22.5 0.00 0.00 0.00 46 1021.5
20260904103220 25 160 9.7 19.3 0.00 0.00 0.00 46 1021.4
20260904102722 25 106 11.3 19.3 0.00 0.00 0.00 47 1021.5
20260904102214 25 184 9.7 17.7 0.00 0.00 0.00 46 1021.7
20260904100730 25 157 8.0 16.1 0.00 0.00 0.00 47 1021.9
20260904100219 25 102 8.0 17.7 0.00 0.00 0.00 46 1022.0
20260904095224 24 190 8.0 14.5 0.00 0.00 0.00 48 1022.1
20260904094714 24 161 6.4 17.7 0.00 0.00 0.00 48 1022.1
20260904094215 24 144 6.4 17.7 0.00 0.00 0.00 48 1022.2
20260904093713 23 164 8.0 16.1 0.00 0.00 0.00 48 1022.2
20260904093219 23 181 8.0 16.1 0.00 0.00 0.00 49 1022.2
20260904092721 23 178 8.0 16.1 0.00 0.00 0.00 48 1022.3
20260904091711 23 173 6.4 16.1 0.00 0.00 0.00 50 1022.3
20260904091222 23 162 8.0 17.7 0.00 0.00 0.00 50 1022.3
20260904090717 23 113 8.0 17.7 0.00 0.00 0.00 49 1022.3
20260904090220 23 188 6.4 17.7 0.00 0.00 0.00 50 1022.4
20260904085714 22 167 8.0 14.5 0.00 0.00 0.00 51 1022.4
20260904085230 22 140 8.0 14.5 0.00 0.00 0.00 51 1022.5
20260904084720 22 187 6.4 12.9 0.00 0.00 0.00 52 1022.4
20260904084212 22 157 6.4 14.5 0.00 0.00 0.00 51 1022.4
20260904083230 22 176 8.0 16.1 0.00 0.00 0.00 52 1022.4
20260904082220 21 157 8.0 16.1 0.00 0.00 0.00 54 1022.5
20260904081720 21 161 8.0 12.9 0.00 0.00 0.00 54 1022.4
20260904081210 21 178 6.4 12.9 0.00 0.00 0.00 54 1022.4
20260904080744 21 176 3.2 8.0 0.00 0.00 0.00 56 1022.4
20260904080219 21 160 1.6 0.0 0.00 0.00 0.00 57 1022.5
20260904075717 21 167 0.0 0.0 0.00 0.00 0.00 59 1022.5
20260904075211 20 172 0.0 0.0 0.00 0.00 0.00 60 1022.5
20260904074714 20 191 0.0 0.0 0.00 0.00 0.00 61 1022.5
20260904074226 20 208 0.0 0.0 0.00 0.00 0.00 64 1022.6
20260904073216 19 205 0.0 0.0 0.00 0.00 0.00 67 1022.5
20260904072728 18 164 0.0 0.0 0.00 0.00 0.00 67 1022.5
20260904072229 18 85 0.0 0.0 0.00 0.00 0.00 69 1022.7
20260904070711 17 85 0.0 0.0 0.00 0.00 0.00 73 1022.8
20260904070221 16 85 0.0 0.0 0.00 0.00 0.00 75 1022.8
20260904065713 16 85 0.0 0.0 0.00 0.00 0.00 75 1022.8
20260904065215 15 85 0.0 0.0 0.00 0.00 0.00 76 1023.0
20260904064724 15 85 0.0 0.0 0.00 0.00 0.00 79 1023.1
20260904064212 14 85 0.0 0.0 0.00 0.00 0.00 79 1023.1
20260904063723 14 85 0.0 0.0 0.00 0.00 0.00 80 1023.1
20260904063216 13 85 0.0 0.0 0.00 0.00 0.00 82 1023.1
20260904061732 13 59 0.0 0.0 0.00 0.00 0.00 83 1023.1
20260904060724 12 59 0.0 0.0 0.00 0.00 0.00 83 1023.2
20260904060215 12 59 0.0 0.0 0.00 0.00 0.00 83 1023.2
20260904055218 12 59 0.0 0.0 0.00 0.00 0.00 83 1023.2
20260904054719 12 59 0.0 0.0 0.00 0.00 0.00 83 1023.3
20260904053724 12 59 0.0 0.0 0.00 0.00 0.00 83 1023.2
20260904053219 12 59 0.0 0.0 0.00 0.00 0.00 83 1023.2
20260904052726 12 59 0.0 0.0 0.00 0.00 0.00 83 1023.2
20260904052228 12 59 0.0 0.0 0.00 0.00 0.00 82 1023.2
20260904051722 12 59 0.0 0.0 0.00 0.00 0.00 82 1023.1
20260904050748 12 22 0.0 0.0 0.00 0.00 0.00 82 1023.3
20260904050223 12 22 0.0 0.0 0.00 0.00 0.00 82 1023.3
20260904045731 12 27 0.0 0.0 0.00 0.00 0.00 82 1023.3
20260904045223 12 27 0.0 0.0 0.00 0.00 0.00 82 1023.4
20260904044729 12 27 0.0 0.0 0.00 0.00 0.00 82 1023.3
20260904044220 12 27 0.0 0.0 0.00 0.00 0.00 81 1023.3
20260904043717 12 27 0.0 0.0 0.00 0.00 0.00 81 1023.3
20260904043221 12 27 0.0 0.0 0.00 0.00 0.00 81 1023.3
20260904042222 12 27 0.0 0.0 0.00 0.00 0.00 81 1023.4
20260904041729 12 27 0.0 0.0 0.00 0.00 0.00 81 1023.4
20260904041211 12 27 0.0 0.0 0.00 0.00 0.00 81 1023.4
20260904040714 12 27 0.0 0.0 0.00 0.00 0.00 81 1023.4
20260904040222 12 27 0.0 0.0 0.00 0.00 0.00 81 1023.6
20260904035225 13 27 0.0 0.0 0.00 0.00 0.00 81 1023.6
20260904034714 13 27 0.0 0.0 0.00 0.00 0.00 80 1023.7
20260904034214 13 27 0.0 0.0 0.00 0.00 0.00 80 1023.8
20260904033219 13 27 0.0 0.0 0.00 0.00 0.00 80 1023.8
20260904032708 13 27 0.0 0.0 0.00 0.00 0.00 80 1023.9
20260904032218 13 27 0.0 0.0 0.00 0.00 0.00 80 1023.9
20260904031722 13 27 0.0 0.0 0.00 0.00 0.00 80 1023.9
20260904030728 13 25 0.0 0.0 0.00 0.00 0.00 80 1023.8
20260904030218 13 355 0.0 0.0 0.00 0.00 0.00 79 1023.8
20260904025720 13 44 0.0 0.0 0.00 0.00 0.00 79 1023.8
20260904024720 13 51 0.0 0.0 0.00 0.00 0.00 79 1023.9
20260904024231 13 51 0.0 0.0 0.00 0.00 0.00 79 1024.0
20260904023723 13 51 0.0 0.0 0.00 0.00 0.00 79 1024.1